Voltar ao catálogo

STARLINK-11700

AtivoComunicaçõesVLEO
NORAD 64068·PAYLOAD·🇺🇸 United States

Lançado May 21, 2025 de Cape Canaveral Space Force Station

Loading…

Próximas Passagens (próximas 24 horas)

TLE

AtualizadoSource: CelesTrak SupGP

Época: Sep 15, 2026, 03:51 UTC

1 64068C 25107E   26258.16090278 -.00129350  00000+0 -10047-2 0  2588
2 64068  43.0011  36.5604 0001344 274.1054  45.2124 15.70902799    12

Acompanhe STARLINK-11700 em tempo real com AllMySat

Download on the App Store